IRIDIUM 138 (43071 NORAD) Tracking and Keplerian Element Data

This shows tracking and keplerian element data for the satellite.

Feedback or suggestion? Click here.




ElementValue
Catalog43071
NameIRIDIUM 138
Epoch Orbit24924
Epoch Day269.45827435
Epoch Year2022
RAAN170.0973
Inclination86.4026
Eccentricity0.0002123
Argument of Perigee88.3693
Mean Anonmoly271.7746
Mean Motion14.34214308
Decay Rate1.92E-06
L11 43071U 17083B 22269.45827435 .00000192 00000+0 61667-4 0 9994
L22 43071 86.4026 170.0973 0002123 88.3693 271.7746 14.34214308249240

Live tracking and technical data element details for IRIDIUM 138 (NORAD 43071). IRIDIUM 138 can be tracked NOW for your location showing map with azimuth and elevation plus other details from your city location.

Track the satellite on the map from your city or location and see movement details for azimuth, elevation, latitude, longitude, range, height, and movement on the map or in text.







IsCatalogInMostPopularTable: catalog: 43071, numindb: 666
Update: records affected: 1



GetName: 43071 IRIDIUM 138

Hit Count: updated at: Wed, 05 Oct 2022 08:52:25 GMT